TimePDT,TemperatureF,Dew PointF,Humidity,Sea Level PressureIn,VisibilityMPH,Wind Direction,Wind SpeedMPH,Gust SpeedMPH,PrecipitationIn,Events,Conditions,WindDirDegrees,DateUTC
12:53 AM,46.9,43.0,86,30.02,10.0,South,8.1,-,N/A,,Mostly Cloudy,170,2012-10-30 07:53:00
1:53 AM,48.0,43.0,83,30.02,10.0,South,6.9,-,N/A,,Overcast,170,2012-10-30 08:53:00
2:53 AM,48.0,43.0,83,30.01,10.0,South,8.1,-,N/A,,Overcast,170,2012-10-30 09:53:00
3:53 AM,48.0,43.0,83,30.01,10.0,South,8.1,-,N/A,,Overcast,170,2012-10-30 10:53:00
4:53 AM,48.0,43.0,83,30.00,10.0,SSE,10.4,-,N/A,,Overcast,150,2012-10-30 11:53:00
5:53 AM,48.0,44.1,86,29.99,10.0,SSE,8.1,-,0.01,Rain,Light Rain,160,2012-10-30 12:53:00
6:53 AM,48.0,44.1,86,29.97,10.0,SE,5.8,-,0.01,Rain,Light Rain,140,2012-10-30 13:53:00
7:53 AM,48.0,45.0,89,29.96,10.0,Calm,Calm,-,0.00,,Overcast,0,2012-10-30 14:53:00
8:53 AM,48.9,44.1,83,29.95,10.0,SSE,8.1,-,N/A,,Overcast,150,2012-10-30 15:53:00
9:53 AM,52.0,45.0,77,29.94,10.0,SE,3.5,-,N/A,,Overcast,140,2012-10-30 16:53:00
10:53 AM,52.0,46.9,83,29.93,10.0,Calm,Calm,-,N/A,,Overcast,0,2012-10-30 17:53:00
11:53 AM,55.0,46.9,74,29.93,10.0,South,6.9,-,N/A,,Overcast,180,2012-10-30 18:53:00
12:53 PM,57.0,46.0,67,29.92,10.0,SSW,10.4,-,N/A,,Overcast,200,2012-10-30 19:53:00
1:53 PM,54.0,48.9,83,29.92,10.0,SSW,8.1,-,0.01,Rain,Light Rain,200,2012-10-30 20:53:00
2:53 PM,55.0,50.0,83,29.91,10.0,South,4.6,-,0.03,Rain,Light Rain,180,2012-10-30 21:53:00
3:53 PM,55.0,50.0,83,29.92,7.0,SSW,10.4,-,0.02,Rain,Light Rain,200,2012-10-30 22:53:00
4:53 PM,53.6,48.2,82,29.91,10.0,South,9.2,-,N/A,Rain,Light Rain,190,2012-10-30 23:53:00
5:53 PM,52.0,50.0,93,29.91,7.0,South,8.1,-,0.04,Rain,Light Rain,180,2012-10-31 00:53:00
6:53 PM,52.0,50.0,93,29.91,7.0,South,6.9,-,0.02,Rain,Light Rain,170,2012-10-31 01:53:00
6:57 PM,51.8,50.0,94,29.90,7.0,South,8.1,-,0.00,Rain,Light Rain,170,2012-10-31 01:57:00
7:53 PM,52.0,51.1,97,29.91,10.0,South,8.1,-,0.02,Rain,Light Rain,180,2012-10-31 02:53:00
8:53 PM,52.0,50.0,93,29.91,10.0,SSE,9.2,-,0.00,Rain,Light Rain,160,2012-10-31 03:53:00
9:53 PM,51.1,50.0,96,29.90,10.0,SSE,5.8,-,0.00,,Overcast,150,2012-10-31 04:53:00
10:53 PM,52.0,50.0,93,29.91,10.0,South,4.6,-,0.00,,Overcast,170,2012-10-31 05:53:00
11:53 PM,52.0,48.9,89,29.90,10.0,SE,8.1,-,N/A,,Overcast,130,2012-10-31 06:53:00